{"data":{"norad_id":68639,"epoch":"2026-09-20T02:58:22.049184Z","epoch_age_seconds":95607,"freshness":"FRESH","line1":"1 68639U 26075D   26263.12386631  .00000043  00000+0  48035-4 0  9991","line2":"2 68639  88.9863 311.3133 0002282  84.2423 275.8988 13.51023672 22627","mean_motion":13.51023672,"eccentricity":0.0002282,"inclination_deg":88.9863,"raan_deg":311.3133,"arg_perigee_deg":84.2423,"mean_anomaly_deg":275.8988,"bstar":4.8035e-5,"rev_number":2262,"period_min":106.58584522566,"perigee_km":1066.795278398,"apogee_km":1070.1939210601,"semimajor_km":7446.631599729,"source":"CELESTRAK","updated_at":"2026-09-20T09:00:24.368073Z"}}